Погода в Исити

Погода в Исити : погода сейчас, прогноз погоды и архив. Всё, что Вы хотите узнать о погоде в Исити!

Хотите узнать прогноз погоды в Исити? Тогда Вам сюда: Погода в Исити

Поиск расширенной информации на нашем сайте:

Другие новости

Новости СМИ2

Главная страница сайта

Новости сайта

03.07.2017

Напоминаем, что на нашем специализированном сайте Метеоцентр.Азия вы можете получить высокодетализированные автоматические прогнозы погоды по пунктам России, СНГ и мира в авиационном формате (включающие направление и скорость ветра, видимость, явления погоды, количество и форму облачности, нижнюю и верхнюю границу облачности).


Погода в Исити - сегодня

Время (UTC), дата Ветер
(°,м/с) 
Видим.   Явления Облачность Т
(°С)
Тd
(°С)
f(%) Тe
(°С)
Pmin
(гПа)
dP
(гПа)
Po
(мм)
O2
(г/м3)
Тmin Tmax R s Состояние
почвы
09 14.08.18 070 (В) 20000 м    ясно 100 м 
+25.9 +11.6 41 +32  1015  -0.8  676  246           
12 14.08.18 350 (С) 20000 м    ясно 
+17.6 +11.8 69 +23  1011.6  751  282    +29       
15 14.08.18 340 (С) 20000 м    ясно 
+16.1 +10.2 68 +18  1017.6  0.9  752  284           
18 14.08.18 340 (С) 20000 м    ясно 
+14.1 +9.2 72 +15  1019.4  1.6  753  287           
21 14.08.18 320 (СЗ) 20000 м    ясно 
+10.6 +7.2 79 +12  1019.6  753  291           
03 15.08.18 100 (В) 20000 м    3/0 верхняя 
[Ci sp]
+24.3 +10.9 43 +27  1015.8  -1.6  751  276           
06 15.08.18 100 (В) 20000 м    4/0 верхняя 
[Ci sp]
+27.5 +7.7 29 +28  1013.6  -2  749  273           
09 15.08.18 110 (В) 20000 м    6/0 средняя, верхняя 
[Ac lent|Ci sp]
+25.9 +10.6 38 +28  1011.7  -1.9  748  273           
12 15.08.18 тихо ()   20000 м    8/0 средняя, верхняя 
[Ac lent|Cs]
+20.3 +10.8 54 +23  1011.2  -0.8  747  278    +27.6       
15 15.08.18 040 (СВ) 20000 м    10/0 средняя, верхняя 
[Ac lent|Cs]
+22.8 +7.7 38 +23  1010.1  -1  746  276           
18 15.08.18 040 (СВ) 20000 м    6/0 средняя, верхняя 
[Ac lent|Ci sp]
+21.3 +7.1 40 +21    -1.3  757  282           
21 15.08.18 010 (С) 20000 м    10/0 средняя, верхняя 
[Ac trans|Cs]
+18.4 +7.8 50 +20  1007.7  -1.3  744  280           
03 16.08.18 110 (В) 20000 м    8/0 верхняя 
[Cs]
+21.5 +15.9 70 +32  1004.6  -1.9  742  274           
06 16.08.18 080 (В) 20000 м    10/0 верхняя 
[Cs]
+24 +18.3 70 +39  1003.2  -1.4  741  270           
09 16.08.18 260 (З) 20000 м    10/0 верхняя 
[Cs]
+24.7 +19.9 75 +44  1002.1  -1  740  269           
15 16.08.18 340 (С) 20000 м    10/0 верхняя 
[Cs]
+20 +16.9 82 +33  1000.6  -1.3  739  274           
18 16.08.18 300 (СЗ) 20000 м    10/0 средняя, верхняя 
[Ac As|Cs]
+19.1 +16.4 84 +33  1000.5  -0.1  740  275           
21 16.08.18 350 (С) 20000 м    10/6 1000 м верхняя 
[Sc|Cs]
+17.5 +16 91 +30  999.7  -0.9  738  276           
03 17.08.18 080 (В) 20000 м    10/3 1000 м кучево-дожд., средняя, верхняя 
[Cb calv|Ac trans|Cs]
+22.9 +18.3 75 +38  999.3  -0.6  738  270           
06 17.08.18 тихо ()   20000 м  {ливн. осадки}  9/0 кучево-дожд., средняя, верхняя 
[Cb calv|Ac As|Ci sp]
+23.3 +18.7 75 +40  999.4  0.2  738  270           
09 17.08.18 270 (З) 20000 м  {гроза, ливн. осадки}  10/5 1000 м кучево-дожд., средняя 
[Cb calv|Ac As]
+20 +15.1 73 +29  1000.9  1.3  739  274           
12 17.08.18 300 (СЗ) 20000 м  {гроза, ливн. осадки}  10/3 1000 м средняя 
[Sc|Ac As]
+17 +14.2 84 +26  1002.9  1.8  741  278    +25.2  0.1     
15 17.08.18 310 (СЗ) 20000 м    8/0 средняя 
[Ac As]
+14.7 +13.1 90 +22  1003.7  0.6  741  281           
18 17.08.18 тихо ()   20000 м    10/0 средняя, верхняя 
[Ac As|Cs]
+14 +12.5 91 +19  1003.9  0.2  741  282           
21 17.08.18 310 (СЗ) 20000 м    10/10 300 м 
[St]
+13.4 +11.9 91 +19  1003.6  -0.3  741  282           
Время (UTC), дата Ветер
(°,м/с) 
Видим.   Явления Облачность Т
(°С)
Тd
(°С)
f(%) Тe
(°С)
Pmin
(гПа)
dP
(гПа)
Po
(мм)
O2
(г/м3)
Тmin Tmax R s Состояние
почвы

Для получения пояснительной информации подведите курсор к названию столбца.

ПОГОДА в Исити - архив

Всё, что Вы хотите узнать о погоде в Исити - удобно и подробно!

Выберите нужную дату (начиная с 1 января 2015* года) и нажмите кнопку "Найти".
Будут отображены архивные сводки погоды по пункту Исить, начиная с указанной даты.


Отображать данные в формате CSV (для использования в таблицах Excel)


Внимание! Наш архив погоды предназначен исключительно для личного некоммерческого использования в познавательных целях. Если Вам необходимы официальные справки о состоянии погоды (для производственных, юридических, коммерческих и т.п. целей), обращайтесь в органы Росгидромета.

*Примечание: данная дата относится к архиву по метеостанциям СССР (Россия, СНГ, Балтия).
Архив по метеостанциям Зарубежной Европы и Азии (кроме Китая) хранится 10 дней, по другим регионам земного шара (Китай, Африка, Америка, Австралия, Океания) - 1 день.

Исить - район местоположения метеостанции


Название, широта, долгота, высота метеостанции:
Исить 60.8°ш. 125.3°д. 118 м над ур. моря [Российская Федерация]

Дополнительная информация

В oтличие oт бoльшинства пoгoдных сайтoв мы публикуем пoдрoбную метеoинфoрмацию в детальнoм прoфессиoнальнoм фoрмате.

Характеристики температуры и влажнoсти вoздуха измеряются на высoте 2 м в тени вдали oт зданий и деревьев.
Скoрoсть ветра измеряется на высoте 10 м (на урoвне рoста челoвека скoрoсть ветра ниже в 1.5-2 раза). Если метеoстанция нахoдится в гoрoде или в лесу, тo скoрoсть ветра занижена на 2-4 м/с пo сравнению с oткрытым местoм. Скoрoсть ветра над акватoриями крупных рек и oзёр, а также на вершинах хoлмoв на 2-5 м/с выше, чем в oбычных услoвиях.
Атмoсфернoе давление в разных тoчках местнoсти мoжет значительнo oтличаться oт давления на метеoстанции, в зависимoсти oт услoвий рельефа (при пoдъёме на 10 м давление пoнижается примернo на 1 мм рт.ст.).